Flag for Germany Weather past 2 weeks in Heilbronn, Baden-Württemberg, Germany

Now
57 °F

Overcast.


Feels Like: 57 °F
Forecast: 58 / 76 °F
Wind: 1 mph from Southwest

Location: Oehringen

Current Time: May 4, 2015 at 7:14:51 AM

Latest Report: May 4, 2015 at 7:00 AM


Visibility: 19 mi

Pressure: 29.85 "Hg

Humidity: 97%

Dew point: 56 °F

Location of HeilbronnLocation

Historic Weather in Heilbronn — Graph

°F

Heilbronn temperature yesterday

Maximum temperature yesterday: 63 °F (at 6:00 PM)
Minimum temperature yesterday: 52 °F (at 5:00 AM)
Average temperature yesterday: 57 °F

Past Weeks' High & Low Weather Summary

 TemperatureHumidityPressure
High72 °F (Apr 21, 6:00 PM)98% (May 3, 10:00 AM)30.41 "Hg (May 3, 10:00 AM)
Low34 °F (Apr 23, 6:00 AM)22% (Apr 21, 6:00 PM)29.53 "Hg (Apr 27, 6:00 PM)
Average53 °F67%29.98 "Hg
* Reported Apr 19 5:00 AM — May 4 5:00 AM, Heilbronn, Weather by CustomWeather, © 2015

Note: Actual official high and low records may vary slightly from our data, if they occured in-between our weather recording intervals... More about our weather records

Advertising

Heilbronn weather history for previous 24 hours

 ConditionsComfort  
Time TempWeatherWind HumidityBarometerVisibility
5:00 AM
Mon, May 4
58 °FOvercast.3 mph97%29.83 "Hg25 mi
4:00 AM58 °FOvercast.5 mph94%29.82 "Hg31 mi
3:00 AM60 °FOvercast.7 mph94%29.80 "Hg31 mi
2:00 AM60 °FOvercast.5 mph94%29.78 "Hg31 mi
1:00 AM59 °FOvercast.1 mph98%29.77 "Hg15 mi
12:00 AM59 °FOvercast.1 mph98%29.76 "Hg12 mi
11:00 PM
Sun, May 3
60 °FRain. Overcast.2 mph98%29.77 "Hg3 mi
10:00 PM60 °FOvercast.1 mph98%29.75 "Hg6 mi
9:00 PM60 °FLow clouds.1 mph98%29.73 "Hg12 mi
8:00 PM60 °FDrizzle. Low clouds.2 mph98%29.72 "Hg10 mi
7:00 PM61 °FLight freezing rain. Overcast.2 mph96%29.71 "Hg5 mi
6:00 PM63 °FLight freezing rain. Overcast.1 mph90%29.70 "Hg7 mi
5:00 PM63 °FLight rain. Overcast.2 mph91%29.71 "Hg11 mi
4:00 PM62 °FLight rain. Overcast.2 mph91%29.72 "Hg10 mi
3:00 PM62 °FLight freezing rain. Overcast.2 mph87%29.74 "Hg11 mi
2:00 PM59 °FLow clouds.2 mph95%29.75 "Hg17 mi
1:00 PM58 °FLight freezing rain. Overcast.5 mph94%29.75 "Hg2 mi
12:00 PM59 °FLow clouds.3 mph95%29.74 "Hg18 mi
11:00 AM57 °FDrizzle. Low clouds.2 mph97%29.75 "Hg2 mi
10:00 AM56 °FDrizzle. Low clouds.2 mph98%29.75 "Hg1 mi
9:00 AM54 °FDrizzle. Overcast.2 mph96%29.75 "Hg2 mi
8:00 AM54 °FOvercast.2 mph93%29.75 "Hg18 mi
7:00 AM53 °FDrizzle. Overcast.2 mph95%29.74 "Hg9 mi
Weather by CustomWeather, © 2015

See weather overviewHow to use our weather pages